User: anonymous   Login
Location: Home
(42.5358°N, 72.7383°W)
Time: 04:08:13
(UTC-04:00)
Language:

COSMOS 1275 DEB - Orbit

View from above orbital plane
View from above orbital plane
View from above satellite
View from above satellite

Ground track
Ground track

The orbit data is extracted from the following two-line orbital elements,

1 42160U 81053RY  22166.42130890  .00003363  00000-0  13602-2 0  9993
2 42160  82.9171  48.6640 0010560   3.7257 356.4004 14.27572149 67543
Epoch (UTC): 15 June 2022 10:06:41
Eccentricity: 0.0010560
inclination: 82.9171°
perigee height: 792 km
apogee height: 807 km
right ascension of ascending node: 48.6640°
argument of perigee: 3.7257°
revolutions per day: 14.27572149
mean anomaly at epoch: 356.4004°
orbit number at epoch: 6754

The dashed part of the orbit path shows where the satellite is in the earth's shadow,  

DLR